Location: Chimay
(50.0486°N, 4.3171°E)
Time: 02:43:54
(UTC+00:00)

NOSS 3-2 (C) - Pass Details

Date: 08 August 2020
Orbit: 793 x 1419 km, 63.4° (Epoch: 21 September)

Event Time Altitude Azimuth Distance (km) Brightness Sun altitude
Exits shadow 23:23:19 - 247° (WSW) 2,734 5.7 -23.9°
Reaches altitude 10° 23:23:51 10° 249° (WSW) 2,539 5.5 -23.9°
Maximum altitude 23:29:36 51° 325° (NW) 1,200 4.2 -24.0°
Drops below altitude 10° 23:36:17 10° 41° (NE) 2,943 6.6 -24.1°
Sets 23:39:16 0° 46° (NE) 4,005 7.3 -24.1°
